Waarnemingen

Advertentie
Mijn weer
Westdorpe aws, Nederland (6319): temperatuur & dauwpunt: 16.11.2017 08:00:00 - 22.11.2017 08:00:00 (CET)Westdorpe aws, Nederland (6319): temperatuur 5cm: 16.11.2017 08:00:00 - 22.11.2017 08:00:00 (CET)Westdorpe aws, Nederland (6319): windsnelheid & windstoten: 16.11.2017 08:00:00 - 22.11.2017 08:00:00 (CET)Westdorpe aws, Nederland (6319): windrichting: 16.11.2017 08:00:00 - 22.11.2017 08:00:00 (CET)Westdorpe aws, Nederland (6319): luchtdruk: 16.11.2017 08:00:00 - 22.11.2017 08:00:00 (CET)Westdorpe aws, Nederland (6319): zicht: 16.11.2017 08:00:00 - 22.11.2017 08:00:00 (CET)Westdorpe aws, Nederland (6319): neerslag: 16.11.2017 08:00:00 - 22.11.2017 08:00:00 (CET)
Datum & Tijd tt [°C] td [°C] tt 5cm [°C] ff [km/u] ff [kn] fx [km/u] fx [kn] dd ppp [hPa] vv [km] rr [mm]
22.11.2017 08:00:00 10,8 8,4 10,2 25 13 - - ZZW 1006,7 17 -
22.11.2017 07:00:00 11,1 8,4 10,7 29 16 - - ZZW 1006,4 21 0,0
22.11.2017 06:00:00 11,0 8,3 10,4 25 14 47 25 ZZW 1006,8 21 0,0
22.11.2017 05:00:00 11,4 8,3 11,0 32 18 47 25 ZZW 1006,8 28 0,0
22.11.2017 04:00:00 11,5 8,4 10,7 29 16 - - ZZW 1007,1 17 0,0
22.11.2017 03:00:00 11,3 8,3 10,7 25 14 47 25 ZZW 1007,5 22 0,0
22.11.2017 02:00:00 11,7 8,3 11,1 25 14 47 25 ZZW 1007,8 23 0,0
22.11.2017 01:00:00 11,5 8,4 10,9 29 16 - - ZZW 1008,4 20 0,0
22.11.2017 00:00:00 11,4 8,5 10,9 25 14 47 25 ZZW 1008,6 18 0,0
21.11.2017 23:00:00 11,3 8,6 10,8 29 16 50 27 ZZW 1008,9 17 0,0
21.11.2017 22:00:00 11,2 8,6 10,8 32 18 - - ZZW 1009,2 20 0,0
21.11.2017 21:00:00 11,3 8,6 10,8 29 16 50 27 ZZW 1009,7 19 0,0
21.11.2017 20:00:00 11,3 8,8 10,8 32 18 43 23 ZZW 1009,9 19 0,0
21.11.2017 19:00:00 11,2 8,8 10,8 25 14 - - Z 1010,2 19 0,0
21.11.2017 18:00:00 11,4 9,0 10,9 22 12 40 21 Z 1010,6 23 0,0
21.11.2017 17:00:00 11,5 9,3 11,1 18 10 36 19 ZZW 1011,0 24 0,0
21.11.2017 16:00:00 11,9 9,3 11,5 29 16 - - ZZW 1011,2 32 0,0
21.11.2017 15:00:00 11,8 9,6 11,6 25 14 40 21 ZZW 1011,6 28 0,0
21.11.2017 14:00:00 11,9 9,9 11,6 25 14 40 21 ZZW 1011,8 27 0,0
21.11.2017 13:00:00 11,9 10,4 11,8 25 14 - - ZW 1012,3 20 0,0
21.11.2017 12:00:00 12,1 10,8 11,9 29 16 40 21 ZW 1012,6 15 0,0
21.11.2017 11:00:00 12,5 11,5 12,4 25 14 40 21 ZW 1012,8 15 0,0
21.11.2017 10:00:00 12,6 11,5 12,3 25 14 - - WZW 1012,5 12 0,0
21.11.2017 09:00:00 12,1 11,8 11,9 22 12 36 19 WZW 1012,2 4,7 0,4
21.11.2017 08:00:00 12,1 11,9 11,8 22 12 32 18 WZW 1011,9 8 0,1
21.11.2017 07:00:00 12,0 11,8 11,7 22 12 - - WZW 1012,0 3,3 0,4
21.11.2017 06:00:00 11,8 11,7 11,6 18 10 25 14 WZW 1012,2 2,8 0,4
21.11.2017 05:00:00 11,8 11,7 11,6 14 8 22 12 WZW 1012,3 1,9 0,5
21.11.2017 04:00:00 11,8 11,6 11,6 14 8 - - WZW 1012,5 2,7 0,1
21.11.2017 03:00:00 12,1 11,3 11,9 14 8 29 16 WZW 1012,7 11 0,0
21.11.2017 02:00:00 12,2 11,3 11,9 18 10 29 16 WZW 1012,7 12 0,0
21.11.2017 01:00:00 12,2 11,2 11,9 18 10 - - WZW 1012,9 16 0,0
21.11.2017 00:00:00 12,3 11,1 11,9 22 12 36 19 WZW 1012,7 16 0,0
20.11.2017 23:00:00 12,3 11,0 11,9 22 12 32 18 WZW 1012,4 18 0,0
20.11.2017 22:00:00 12,1 11,0 11,8 18 10 - - W 1012,6 20 0,0
20.11.2017 21:00:00 12,1 10,8 11,5 25 14 40 21 WZW 1012,5 31 0,0
20.11.2017 20:00:00 12,1 10,9 11,7 29 16 43 23 W 1012,4 18 0,0
20.11.2017 19:00:00 11,8 11,2 11,4 29 16 - - WZW 1012,3 21 0,4
20.11.2017 18:00:00 11,4 10,9 10,9 25 14 36 19 WZW 1012,1 2,9 0,6
20.11.2017 17:00:00 10,6 9,9 10,1 22 12 32 18 ZW 1012,4 11 0,0
20.11.2017 16:00:00 9,9 9,5 9,6 22 12 - - ZW 1013,0 3,5 0,2
20.11.2017 15:00:00 9,3 8,7 8,9 29 16 40 21 ZW 1013,3 13 0,1
20.11.2017 14:00:00 8,4 7,9 8,1 25 14 40 21 ZZW 1014,3 3,7 0,1
20.11.2017 13:00:00 7,8 7,1 7,5 25 14 - - ZZW 1015,3 9 0,0
20.11.2017 12:00:00 7,1 6,4 6,7 32 18 43 23 ZZW 1016,3 15 0,3
20.11.2017 11:00:00 5,6 5,1 5,4 22 12 32 18 Z 1017,1 10 0,4
20.11.2017 10:00:00 4,6 3,6 4,6 14 8 - - Z 1018,1 13 0,2
20.11.2017 09:00:00 4,3 2,7 4,0 14 8 22 12 Z 1018,8 20 0,1
20.11.2017 08:00:00 4,4 2,4 4,1 11 6 22 12 Z 1019,8 19 0,2
20.11.2017 07:00:00 5,0 2,0 4,6 14 8 - - ZW 1020,5 41 0,0
20.11.2017 06:00:00 5,1 2,1 4,3 14 8 22 12 ZZW 1020,4 36 0,0
20.11.2017 05:00:00 4,5 2,4 4,0 11 6 22 12 ZZW 1020,8 19 0,0
20.11.2017 04:00:00 4,5 2,1 3,8 14 8 - - ZW 1021,2 34 0,0
20.11.2017 03:00:00 4,3 1,9 3,7 14 8 22 12 ZW 1021,9 34 0,0
20.11.2017 02:00:00 4,1 2,4 3,7 11 6 22 12 ZW 1022,3 35 0,0
20.11.2017 01:00:00 4,0 2,4 3,5 14 8 - - ZW 1022,9 28 0,0
20.11.2017 00:00:00 3,8 2,1 3,2 14 8 18 10 ZW 1023,1 30 0,0
19.11.2017 23:00:00 2,7 1,6 1,6 11 6 18 10 ZW 1023,1 22 0,0
19.11.2017 22:00:00 3,0 2,0 1,7 14 8 - - ZW 1023,3 20 0,0
19.11.2017 21:00:00 3,2 2,0 2,2 11 6 18 10 ZW 1023,1 20 0,0
19.11.2017 20:00:00 4,2 2,3 3,2 14 8 18 10 WZW 1022,7 27 0,0
19.11.2017 19:00:00 4,5 2,5 3,2 14 8 - - WZW 1022,7 25 0,0
19.11.2017 18:00:00 5,3 2,9 3,9 14 8 22 12 WZW 1022,2 25 0,0
19.11.2017 17:00:00 5,7 3,1 4,7 14 8 25 14 W 1022,0 30 0,0
19.11.2017 16:00:00 7,6 3,5 6,8 18 10 - - W 1021,7 25 0,0
19.11.2017 15:00:00 8,6 4,2 7,7 18 10 36 19 WNW 1021,4 33 0,0
19.11.2017 14:00:00 9,2 4,1 9,5 25 14 36 19 WNW 1021,3 25 0,0
19.11.2017 13:00:00 9,0 4,1 9,0 22 12 - - WNW 1021,3 29 0,0
19.11.2017 12:00:00 9,6 5,9 9,7 22 12 36 19 W 1021,0 25 0,0
19.11.2017 11:00:00 8,2 4,7 7,7 25 14 32 18 W 1020,6 33 0,0
19.11.2017 10:00:00 6,8 3,8 6,2 14 8 - - W 1020,2 32 0,0
19.11.2017 09:00:00 5,0 2,6 3,5 14 8 22 12 W 1019,7 39 0,0
19.11.2017 08:00:00 4,9 2,2 4,2 14 8 22 12 W 1019,1 43 0,0
19.11.2017 07:00:00 4,2 1,9 2,7 14 8 - - W 1018,7 43 0,0
19.11.2017 06:00:00 5,8 4,1 5,3 11 6 25 14 WNW 1018,4 28 0,0
19.11.2017 05:00:00 5,1 2,4 3,7 11 6 25 14 WNW 1018,3 43 0,0
19.11.2017 04:00:00 5,5 1,2 4,9 11 6 - - NNW 1018,0 49 0,0
19.11.2017 03:00:00 5,7 0,3 4,4 18 10 29 16 WNW 1017,9 50 0,0
19.11.2017 02:00:00 6,7 0,5 5,7 22 12 32 18 WNW 1017,7 50 0,0
19.11.2017 01:00:00 7,1 1,5 5,7 22 12 - - NW 1017,7 50 0,0
19.11.2017 00:00:00 7,5 3,7 6,7 14 8 29 16 WNW 1017,5 48 0,0
18.11.2017 23:00:00 8,1 6,1 7,6 14 8 22 12 W 1017,4 38 0,0
18.11.2017 22:00:00 7,7 6,3 7,2 11 6 - - WZW 1017,4 32 0,0
18.11.2017 21:00:00 7,8 6,4 7,2 18 10 22 12 ZW 1017,7 36 0,0
18.11.2017 20:00:00 7,9 6,7 7,4 18 10 25 14 WZW 1018,0 37 0,0
18.11.2017 19:00:00 8,2 6,5 7,8 14 8 - - WZW 1018,4 49 0,0
18.11.2017 18:00:00 8,5 6,7 7,9 18 10 32 18 WZW 1018,8 30 0,0
18.11.2017 17:00:00 8,7 6,6 8,4 22 12 29 16 W 1019,1 35 0,0
18.11.2017 16:00:00 8,9 6,3 8,6 18 10 - - W 1019,4 46 0,0
18.11.2017 15:00:00 9,2 5,9 9,0 25 14 40 21 W 1019,6 44 0,0
18.11.2017 14:00:00 8,5 5,3 8,5 25 14 40 21 WZW 1020,1 37 0,0
18.11.2017 13:00:00 8,3 4,8 8,1 22 12 - - ZW 1020,8 37 0,0
18.11.2017 12:00:00 7,6 4,0 7,7 25 14 32 18 ZW 1021,3 40 0,0
18.11.2017 11:00:00 6,7 3,4 6,7 25 14 36 19 ZW 1021,9 38 0,0
18.11.2017 10:00:00 5,8 2,5 5,3 22 12 - - ZW 1022,2 31 0,0
18.11.2017 09:00:00 5,0 2,0 4,7 22 12 29 16 ZW 1022,5 37 0,0
18.11.2017 08:00:00 4,8 1,9 4,6 18 10 25 14 ZW 1022,6 29 0,0
18.11.2017 07:00:00 4,9 1,9 4,5 18 10 - - ZW 1022,7 25 0,0
18.11.2017 06:00:00 4,7 1,8 4,2 18 10 25 14 ZW 1023,0 32 0,0
18.11.2017 05:00:00 4,4 1,9 3,9 14 8 22 12 ZW 1023,5 30 0,0
18.11.2017 04:00:00 4,4 2,1 3,8 14 8 - - ZW 1024,1 33 0,0
18.11.2017 03:00:00 4,4 2,2 3,5 11 6 18 10 WZW 1025,0 35 0,0
18.11.2017 02:00:00 4,0 2,2 2,8 7 4 14 8 ZW 1025,3 31 0,0
18.11.2017 01:00:00 2,0 1,0 0,5 11 6 - - ZW 1026,0 28 0,0
18.11.2017 00:00:00 2,7 1,3 0,7 7 4 14 8 ZW 1026,2 28 0,0
17.11.2017 23:00:00 2,4 1,2 0,6 11 6 11 6 ZW 1026,5 28 0,0
17.11.2017 22:00:00 3,7 2,3 1,1 7 4 - - ZW 1026,8 20 0,0
17.11.2017 21:00:00 3,8 2,7 1,1 7 4 7 4 WZW 1026,9 25 0,0
17.11.2017 20:00:00 4,3 3,2 2,4 7 4 7 4 WZW 1027,1 29 0,0
17.11.2017 19:00:00 5,4 3,8 2,6 4 2 - - ZW 1027,1 29 0,0
17.11.2017 18:00:00 5,7 4,2 2,4 7 4 11 6 W 1027,4 37 0,0
17.11.2017 17:00:00 6,9 4,5 5,0 11 6 14 8 WNW 1027,4 43 0,0
17.11.2017 16:00:00 9,1 4,0 7,5 4 2 - - WNW 1027,4 43 0,0
17.11.2017 15:00:00 10,4 3,8 10,8 11 6 18 10 W 1027,7 36 0,0
17.11.2017 14:00:00 10,6 3,8 9,3 11 6 18 10 W 1027,9 35 0,0
17.11.2017 13:00:00 11,4 2,3 13,0 4 2 - - ZW 1028,1 29 0,0
17.11.2017 12:00:00 9,6 5,9 9,8 4 2 7 4 WZW 1028,6 22 0,0
17.11.2017 11:00:00 8,5 6,4 8,6 4 2 4 2 W 1028,6 26 0,0
17.11.2017 10:00:00 6,7 6,0 6,9 0 0 - - N 1028,6 18 0,0
17.11.2017 09:00:00 3,9 3,5 1,4 4 2 4 2 ZZW 1028,4 16 0,0
17.11.2017 08:00:00 3,5 3,2 1,0 4 2 7 4 WZW 1028,0 18 0,0
17.11.2017 07:00:00 4,0 3,3 1,7 4 2 - - ZW 1027,5 21 0,0
17.11.2017 06:00:00 5,1 3,9 1,1 4 2 4 2 ZZW 1027,3 24 0,0
17.11.2017 05:00:00 5,7 4,8 1,7 4 2 11 6 NNW 1027,0 29 0,0
17.11.2017 04:00:00 6,9 5,0 5,3 11 6 - - N 1026,8 27 0,0
17.11.2017 03:00:00 8,7 5,6 7,9 14 8 25 14 N 1026,5 28 0,0
17.11.2017 02:00:00 9,2 6,5 8,5 14 8 25 14 N 1026,0 30 0,0
17.11.2017 01:00:00 9,0 8,5 8,4 7 4 - - NW 1025,7 17 0,0
17.11.2017 00:00:00 9,1 8,3 8,8 0 0 25 14 N 1025,3 40 0,2
16.11.2017 23:00:00 10,0 7,9 9,6 18 10 29 16 N 1025,1 34 0,0
16.11.2017 22:00:00 10,3 10,0 10,0 14 8 - - WNW 1024,6 7 0,0
16.11.2017 21:00:00 9,8 9,4 8,8 14 8 22 12 ZW 1023,9 5 0,0
16.11.2017 20:00:00 10,5 9,9 10,1 14 8 22 12 WZW 1023,8 7 0,0
16.11.2017 19:00:00 10,7 9,9 10,2 14 8 - - ZW 1023,3 8 0,0
16.11.2017 18:00:00 10,6 9,8 10,2 14 8 25 14 ZW 1022,9 8 0,0
16.11.2017 17:00:00 10,9 9,8 10,5 14 8 22 12 ZW 1022,7 7 0,0
16.11.2017 16:00:00 11,0 9,8 10,9 14 8 - - ZW 1022,5 8 0,0
16.11.2017 15:00:00 10,9 9,5 11,0 14 8 25 14 ZZW 1022,5 9 0,0
16.11.2017 14:00:00 10,9 9,5 10,9 18 10 25 14 ZW 1022,6 9 0,0
16.11.2017 13:00:00 10,6 9,2 10,9 14 8 - - ZZW 1022,9 9 0,0
16.11.2017 12:00:00 10,0 8,9 10,0 18 10 25 14 ZW 1023,2 7 0,0
16.11.2017 11:00:00 9,5 8,4 9,2 14 8 22 12 ZZW 1023,4 6 0,0
16.11.2017 10:00:00 8,9 8,0 8,9 11 6 - - Z 1023,1 7 0,0
16.11.2017 09:00:00 8,6 7,7 8,5 14 8 22 12 Z 1023,1 6 0,0
16.11.2017 08:00:00 8,5 7,8 8,3 14 8 22 12 Z 1022,7 6 0,0

tt = temperatuur
td = dauwpunt
tt 5cm = temperatuur 5cm
ff = windsnelheid
fx = windstoten
dd = windrichting
ppp = luchtdruk
vv = zicht
rr = neerslag

Weerstations in de omgeving